This is the latest recevied weather packets stored in our database for station/object PY2UEP-1. If no packets are shown the sender has not sent any weather packets the latest 10 day(s).
| Time | Temp. | Humidity | Pressure | Rain* | Wind** | Luminosity | Snow |
|---|---|---|---|---|---|---|---|
| 1787492163 | 19.44° C | 60% | 1023.7 hPa | 0 mm | - | - | - |
| 1787491863 | 19.44° C | 62% | 1023.7 hPa | 0 mm | - | - | - |
| 1787491563 | 19.44° C | 63% | 1023.7 hPa | 0 mm | - | - | - |
| 1787491263 | 18.89° C | 66% | 1023.7 hPa | 0 mm | - | - | - |
| 1787490963 | 18.33° C | 67% | 1023.7 hPa | 0 mm | - | - | - |
| 1787490663 | 18.33° C | 66% | 1023.7 hPa | 0 mm | - | - | - |
| 1787490363 | 18.33° C | 68% | 1023.6 hPa | 0 mm | - | - | - |
| 1787490063 | 17.78° C | 68% | 1023.6 hPa | 0 mm | - | - | - |
| 1787489763 | 17.78° C | 68% | 1023.6 hPa | 0 mm | - | - | - |
| 1787489463 | 17.78° C | 69% | 1023.4 hPa | 0 mm | - | - | - |
| 1787489164 | 17.78° C | 69% | 1023.6 hPa | 0 mm | - | - | - |
| 1787488863 | 17.22° C | 71% | 1023.4 hPa | 0 mm | - | - | - |
| 1787488563 | 16.67° C | 73% | 1023.5 hPa | 0 mm | - | - | - |
| 1787488263 | 16.67° C | 72% | 1023.5 hPa | 0 mm | - | - | - |
| 1787487963 | 16.67° C | 73% | 1023.6 hPa | 0 mm | - | - | - |
| 1787487663 | 16.67° C | 73% | 1023.4 hPa | 0 mm | - | - | - |
| 1787487363 | 16.11° C | 74% | 1023.3 hPa | 0 mm | - | - | - |
| 1787487063 | 15.56° C | 75% | 1023.2 hPa | 0 mm | - | - | - |
| 1787486763 | 15.56° C | 76% | 1023.2 hPa | 0 mm | - | - | - |
| 1787486463 | 15° C | 77% | 1023.1 hPa | 0 mm | - | - | - |
| 1787486163 | 15° C | 77% | 1022.9 hPa | 0 mm | - | - | - |
| 1787485863 | 15° C | 78% | 1022.9 hPa | 0 mm | - | - | - |
| 1787485563 | 14.44° C | 78% | 1022.9 hPa | 0 mm | - | - | - |
| 1787485263 | 14.44° C | 80% | 1022.9 hPa | 0 mm | - | - | - |
| 1787484963 | 14.44° C | 80% | 1022.9 hPa | 0 mm | - | - | - |
* Rain since midnight (hover to see other rain measurements)
** Current wind speed in m/s (hover to see current wind gust speed)